EW1090 Weather Reports


Display with metric or nautical units.
time (UTC)temp
F
wind
direction
speed
MPH
gust
MPH
rain 1hr
in
rain 24hr
in
rain mn
in
humidity
%
barometer
mb
20210228003311 76 60 0.0 5.0 0.00 0.00 0.00 84 1017.5
20210228002932 76 130 2.0 5.0 0.00 0.00 0.00 84 1017.4
20210228002315 76 172 1.0 3.0 0.00 0.00 0.00 83 1017.3
20210228001809 76 209 0.0 4.0 0.00 0.00 0.00 83 1017.3
20210228001255 76 194 1.0 7.0 0.00 0.00 0.00 83 1017.2
20210228000813 76 132 2.0 9.0 0.00 0.00 0.00 83 1017.2
20210228000307 76 103 0.0 4.0 0.00 0.00 0.00 83 1017.2
20210227235810 76 175 1.0 4.0 0.00 0.00 0.00 82 1017.0
20210227235440 77 126 0.0 3.0 0.00 0.00 0.00 81 1016.8
20210227234844 77 157 1.0 6.0 0.00 0.00 0.00 81 1017.0
20210227234305 77 224 2.0 9.0 0.00 0.00 0.00 81 1016.9
20210227233756 77 224 2.0 9.0 0.00 0.00 0.00 81 1017.0
20210227233311 77 203 1.0 7.0 0.00 0.00 0.00 80 1017.0
20210227232947 78 67 1.0 7.0 0.00 0.00 0.00 80 1016.9
20210227232314 78 184 1.0 5.0 0.00 0.00 0.00 80 1016.9
20210227231801 78 136 2.0 6.0 0.00 0.00 0.00 79 1016.9
20210227231314 78 149 2.0 7.0 0.00 0.00 0.00 79 1016.9
20210227230804 78 197 2.0 5.0 0.00 0.00 0.00 79 1017.0
20210227230259 78 178 1.0 7.0 0.00 0.00 0.00 78 1016.9
20210227225811 78 153 1.0 7.0 0.00 0.00 0.00 78 1016.9
20210227225329 78 212 1.0 6.0 0.00 0.00 0.00 77 1016.9
20210227224842 79 223 2.0 8.0 0.00 0.00 0.00 76 1017.0
20210227224312 79 190 1.0 8.0 0.00 0.00 0.00 75 1016.9
20210227223756 80 153 1.0 5.0 0.00 0.00 0.00 75 1016.7
20210227223309 80 166 2.0 8.0 0.00 0.00 0.00 75 1016.8
20210227222823 80 173 2.0 8.0 0.00 0.00 0.00 75 1016.9
20210227222257 80 112 2.0 9.0 0.00 0.00 0.00 76 1016.7
20210227221817 80 175 3.0 9.0 0.00 0.00 0.00 75 1016.8
20210227221259 80 156 3.0 12.0 0.00 0.00 0.00 75 1016.8
20210227220810 80 181 3.0 12.0 0.00 0.00 0.00 76 1016.9
20210227220304 80 178 2.0 8.0 0.00 0.00 0.00 76 1016.8
20210227215826 80 192 3.0 8.0 0.00 0.00 0.00 76 1016.8
20210227215306 80 169 2.0 7.0 0.00 0.00 0.00 76 1016.8
20210227214757 80 115 2.0 6.0 0.00 0.00 0.00 77 1016.8
20210227214310 80 201 1.0 6.0 0.00 0.00 0.00 77 1016.9
20210227213812 80 228 1.0 10.0 0.00 0.00 0.00 76 1016.8
20210227213301 80 171 4.0 10.0 0.00 0.00 0.00 75 1016.9
20210227212911 80 315 2.0 7.0 0.00 0.00 0.00 76 1016.9
20210227212301 80 220 3.0 8.0 0.00 0.00 0.00 75 1016.9
20210227211811 80 174 2.0 8.0 0.00 0.00 0.00 75 1017.0
20210227211305 80 182 2.0 9.0 0.00 0.00 0.00 74 1017.1
20210227210754 80 195 1.0 9.0 0.00 0.00 0.00 74 1017.1
20210227210310 80 134 3.0 9.0 0.00 0.00 0.00 73 1017.0
20210227205805 80 182 2.0 9.0 0.00 0.00 0.00 73 1017.1
20210227205622 80 186 2.0 10.0 0.00 0.00 0.00 73 1017.1
20210227204806 80 76 2.0 11.0 0.00 0.00 0.00 74 1017.1
20210227204258 80 109 3.0 11.0 0.00 0.00 0.00 73 1017.2
20210227203824 80 171 3.0 10.0 0.00 0.00 0.00 73 1017.2
20210227203307 80 222 2.0 10.0 0.00 0.00 0.00 74 1017.0
20210227202932 81 130 1.0 10.0 0.00 0.00 0.00 74 1017.0
20210227202312 80 160 4.0 13.0 0.00 0.00 0.00 74 1017.1
20210227201812 80 221 2.0 13.0 0.00 0.00 0.00 75 1017.1
20210227201313 80 292 4.0 10.0 0.00 0.00 0.00 75 1017.1
20210227200808 80 156 2.0 8.0 0.00 0.00 0.00 76 1017.1
20210227200314 79 81 3.0 6.0 0.00 0.00 0.00 77 1017.1
20210227195811 79 196 2.0 5.0 0.00 0.00 0.00 79 1017.1
20210227195300 79 148 2.0 10.0 0.00 0.00 0.00 80 1017.2
20210227194813 79 177 2.0 10.0 0.00 0.00 0.00 80 1017.2
20210227194300 79 169 4.0 10.0 0.00 0.00 0.00 80 1017.2
20210227193759 79 149 1.0 9.0 0.00 0.00 0.00 82 1017.2
20210227193318 79 157 2.0 9.0 0.00 0.00 0.00 81 1017.3
20210227192300 80 112 2.0 6.0 0.00 0.00 0.00 81 1017.4
20210227191820 80 211 1.0 7.0 0.00 0.00 0.00 80 1017.5
20210227191303 80 165 1.0 8.0 0.00 0.00 0.00 79 1017.5
20210227190818 80 219 2.0 11.0 0.00 0.00 0.00 80 1017.7
20210227190308 80 85 3.0 11.0 0.00 0.00 0.00 80 1017.5
20210227185759 79 296 4.0 10.0 0.00 0.00 0.00 83 1017.7
20210227185310 79 119 2.0 6.0 0.00 0.00 0.00 83 1017.7
20210227184805 79 126 1.0 7.0 0.00 0.00 0.00 82 1017.8
20210227184257 79 184 4.0 8.0 0.00 0.00 0.00 80 1017.8
20210227183808 79 64 2.0 13.0 0.00 0.00 0.00 80 1017.9
20210227183305 80 93 3.0 9.0 0.00 0.00 0.00 79 1017.9
20210227183024 80 147 2.0 7.0 0.00 0.00 0.00 79 1018.1
20210227182306 80 163 1.0 8.0 0.00 0.00 0.00 80 1018.3
20210227181757 80 128 3.0 8.0 0.00 0.00 0.00 80 1018.2
20210227181309 80 213 1.0 7.0 0.00 0.00 0.00 80 1018.3
20210227180804 80 152 3.0 7.0 0.00 0.00 0.00 80 1018.4
20210227180257 80 261 3.0 8.0 0.00 0.00 0.00 80 1018.5
20210227175807 80 150 3.0 11.0 0.00 0.00 0.00 80 1018.6
20210227175349 80 196 3.0 11.0 0.00 0.00 0.00 80 1018.9
20210227174825 80 99 2.0 11.0 0.00 0.00 0.00 81 1019.1
20210227174301 80 90 5.0 11.0 0.00 0.00 0.00 80 1019.1
20210227173813 80 109 2.0 9.0 0.00 0.00 0.00 82 1019.2
20210227173304 79 68 3.0 7.0 0.00 0.00 0.00 82 1019.4
20210227172903 80 202 2.0 10.0 0.00 0.00 0.00 82 1019.3
20210227172310 80 117 6.0 10.0 0.00 0.00 0.00 80 1019.4
20210227171803 80 118 1.0 8.0 0.00 0.00 0.00 81 1019.4
20210227171315 81 160 2.0 9.0 0.00 0.00 0.00 79 1019.4
20210227170806 81 62 4.0 8.0 0.00 0.00 0.00 79 1019.4
20210227170259 81 103 4.0 10.0 0.00 0.00 0.00 79 1019.3
20210227165810 81 136 3.0 8.0 0.00 0.00 0.00 79 1019.2
20210227165301 81 222 3.0 8.0 0.00 0.00 0.00 81 1019.2
20210227164759 80 149 2.0 8.0 0.00 0.00 0.00 82 1019.2
20210227164309 80 225 3.0 8.0 0.00 0.00 0.00 83 1019.2
20210227163758 79 187 3.0 9.0 0.00 0.00 0.00 83 1019.2
20210227163310 79 83 2.0 7.0 0.00 0.00 0.00 83 1019.2
20210227162912 79 136 2.0 5.0 0.00 0.00 0.00 84 1019.1
20210227162313 79 116 1.0 4.0 0.00 0.00 0.00 85 1019.2
20210227161802 78 199 1.0 5.0 0.00 0.00 0.00 86 1019.2
20210227161315 78 207 1.0 7.0 0.00 0.00 0.00 87 1019.2
20210227160808 77 147 1.0 6.0 0.00 0.00 0.00 87 1019.2
20210227160300 77 163 2.0 8.0 0.00 0.00 0.00 88 1019.3
20210227155819 77 161 1.0 8.0 0.00 0.00 0.00 88 1019.3
20210227155340 76 144 1.0 6.0 0.00 0.00 0.00 89 1019.2
20210227154829 76 122 1.0 4.0 0.00 0.00 0.00 89 1019.3
20210227154310 76 283 1.0 3.0 0.00 0.00 0.00 90 1019.2
20210227153759 75 146 1.0 7.0 0.00 0.00 0.00 90 1019.1
20210227153313 75 61 1.0 8.0 0.00 0.00 0.00 91 1019.1
20210227152855 75 171 1.0 3.0 0.00 0.00 0.00 91 1019.1
20210227152259 75 123 1.0 5.0 0.00 0.00 0.00 92 1019.1
20210227151810 74 130 2.0 5.0 0.00 0.00 0.00 92 1019.1
20210227151306 74 198 0.0 5.0 0.00 0.00 0.00 93 1019.0
20210227150814 74 107 1.0 5.0 0.00 0.00 0.00 93 1019.0
20210227150306 73 151 0.0 5.0 0.00 0.00 0.00 93 1018.9
20210227145759 73 161 0.0 4.0 0.00 0.00 0.00 93 1018.8
20210227145312 73 154 0.0 4.0 0.00 0.00 0.00 93 1018.8
20210227144804 72 150 1.0 4.0 0.00 0.00 0.00 93 1018.7
20210227144315 72 123 0.0 2.0 0.00 0.00 0.00 93 1018.7
20210227143806 71 109 0.0 3.0 0.00 0.00 0.00 93 1018.6
20210227143257 71 151 1.0 4.0 0.00 0.00 0.00 93 1018.5
20210227142306 70 95 1.0 3.0 0.00 0.00 0.00 93 1018.6
20210227141757 70 93 0.0 2.0 0.00 0.00 0.00 93 1018.8
20210227141308 70 128 0.0 2.0 0.00 0.00 0.00 94 1018.7
20210227140802 69 112 0.0 1.0 0.00 0.00 0.00 93 1018.6
20210227140314 69 124 0.0 3.0 0.00 0.00 0.00 94 1018.7
20210227135804 68 147 0.0 0.0 0.00 0.00 0.00 94 1018.7
20210227135315 68 147 0.0 0.0 0.00 0.00 0.00 94 1018.5
20210227134821 67 147 0.0 1.0 0.00 0.00 0.00 94 1018.4
20210227134258 66 149 0.0 1.0 0.00 0.00 0.00 94 1018.3
20210227133813 65 37 0.0 0.0 0.00 0.00 0.00 94 1018.3
20210227133304 65 37 0.0 0.0 0.00 0.00 0.00 93 1018.3
20210227132909 65 37 0.0 0.0 0.00 0.00 0.00 94 1018.4
20210227132310 64 37 0.0 0.0 0.00 0.00 0.00 93 1018.4
20210227131803 64 37 0.0 0.0 0.00 0.00 0.00 94 1018.4
20210227131313 64 37 0.0 0.0 0.00 0.00 0.00 94 1018.4
20210227130805 64 37 0.0 0.0 0.00 0.00 0.00 94 1018.4
20210227130256 64 37 0.0 0.0 0.00 0.00 0.00 94 1018.5
20210227125812 64 37 0.0 0.0 0.00 0.00 0.00 94 1018.4
20210227125351 64 37 0.0 0.0 0.00 0.00 0.00 93 1018.3
20210227124816 64 37 0.0 0.0 0.00 0.00 0.00 93 1018.2
20210227124312 64 37 0.0 0.0 0.00 0.00 0.00 93 1018.1
20210227123801 64 37 0.0 0.0 0.00 0.00 0.00 93 1018.1
20210227123309 64 37 0.0 0.0 0.00 0.00 0.00 93 1018.0
20210227122845 64 37 0.0 0.0 0.00 0.00 0.00 93 1018.0
20210227122316 64 37 0.0 0.0 0.00 0.00 0.00 93 1018.0
20210227121817 64 37 0.0 0.0 0.00 0.00 0.00 93 1018.1
20210227121314 64 37 0.0 0.0 0.00 0.00 0.00 93 1018.0
20210227120806 64 37 0.0 0.0 0.00 0.00 0.00 93 1018.0
20210227120306 64 37 0.0 0.0 0.00 0.00 0.00 93 1017.9
20210227115813 64 37 0.0 0.0 0.00 0.00 0.00 93 1017.9
20210227115415 63 37 0.0 0.0 0.00 0.00 0.00 94 1017.9
20210227114818 63 37 0.0 0.0 0.00 0.00 0.00 94 1017.8
20210227114313 63 37 0.0 0.0 0.00 0.00 0.00 94 1017.8
20210227113805 63 37 0.0 0.0 0.00 0.00 0.00 94 1017.8
20210227113312 63 37 0.0 0.0 0.00 0.00 0.00 94 1017.9
20210227112935 63 37 0.0 0.0 0.00 0.00 0.00 94 1017.7
20210227112257 63 37 0.0 0.0 0.00 0.00 0.00 93 1017.7
20210227111817 63 37 0.0 0.0 0.00 0.00 0.00 93 1017.6
20210227111302 63 37 0.0 0.0 0.00 0.00 0.00 93 1017.6
20210227110813 63 37 0.0 0.0 0.00 0.00 0.00 93 1017.5
20210227110305 63 37 0.0 0.0 0.00 0.00 0.00 93 1017.6
20210227105815 63 37 0.0 0.0 0.00 0.00 0.00 93 1017.5
20210227105359 63 37 0.0 0.0 0.00 0.00 0.00 93 1017.5
20210227104803 63 37 0.0 0.0 0.00 0.00 0.00 94 1017.4
20210227104311 63 37 0.0 0.0 0.00 0.00 0.00 94 1017.5
20210227103806 63 37 0.0 0.0 0.00 0.00 0.00 94 1017.4
20210227103302 63 37 0.0 0.0 0.00 0.00 0.00 93 1017.4
20210227102856 63 37 0.0 0.0 0.00 0.00 0.00 93 1017.4
20210227102315 63 37 0.0 0.0 0.00 0.00 0.00 93 1017.3
20210227101815 63 37 0.0 0.0 0.00 0.00 0.00 93 1017.3
20210227101304 63 37 0.0 0.0 0.00 0.00 0.00 93 1017.4
20210227100819 63 37 0.0 0.0 0.00 0.00 0.00 93 1017.3
20210227100307 63 37 0.0 0.0 0.00 0.00 0.00 93 1017.4
20210227095810 63 37 0.0 0.0 0.00 0.00 0.00 93 1017.3
20210227095315 63 37 0.0 0.0 0.00 0.00 0.00 93 1017.4
20210227094803 63 37 0.0 0.0 0.00 0.00 0.00 93 1017.4
20210227094313 63 37 0.0 0.0 0.00 0.00 0.00 93 1017.4
20210227093806 63 37 0.0 0.0 0.00 0.00 0.00 93 1017.5
20210227093257 63 37 0.0 0.0 0.00 0.00 0.00 93 1017.5
20210227093032 64 37 0.0 1.0 0.00 0.00 0.00 93 1017.4
20210227092325 64 37 0.0 1.0 0.00 0.00 0.00 93 1017.4
20210227091819 65 37 0.0 1.0 0.00 0.00 0.00 93 1017.3
20210227091314 66 37 0.0 2.0 0.00 0.00 0.00 93 1017.4
20210227090819 67 45 0.0 2.0 0.00 0.00 0.00 93 1017.4
20210227090309 67 147 0.0 0.0 0.00 0.00 0.00 93 1017.3
20210227085804 68 147 0.0 0.0 0.00 0.00 0.00 93 1017.2
20210227085312 68 147 0.0 0.0 0.00 0.00 0.00 93 1017.2
20210227084810 68 147 0.0 0.0 0.00 0.00 0.00 93 1017.2
20210227084316 68 147 0.0 0.0 0.00 0.00 0.00 93 1017.2
20210227083815 68 147 0.0 0.0 0.00 0.00 0.00 93 1017.2
20210227083306 68 147 0.0 0.0 0.00 0.00 0.00 93 1017.2
20210227082948 68 147 0.0 0.0 0.00 0.00 0.00 93 1017.1
20210227082306 68 147 0.0 0.0 0.00 0.00 0.00 93 1017.1
20210227081815 68 147 0.0 0.0 0.00 0.00 0.00 93 1017.2
20210227081308 68 147 0.0 0.0 0.00 0.00 0.00 93 1017.3
20210227080758 68 147 0.0 0.0 0.00 0.00 0.00 93 1017.3
20210227080311 68 147 0.0 0.0 0.00 0.00 0.00 93 1017.3
20210227075806 68 147 0.0 0.0 0.00 0.00 0.00 93 1017.3
20210227075311 68 147 0.0 0.0 0.00 0.00 0.00 93 1017.3
20210227074830 68 147 0.0 0.0 0.00 0.00 0.00 93 1017.4
20210227074302 68 147 0.0 0.0 0.00 0.00 0.00 93 1017.5
20210227073812 68 147 0.0 0.0 0.00 0.00 0.00 93 1017.5
20210227073306 68 147 0.0 0.0 0.00 0.00 0.00 93 1017.5
20210227072908 68 147 0.0 0.0 0.00 0.00 0.00 93 1017.5
20210227072307 68 147 0.0 0.0 0.00 0.00 0.00 93 1017.5
20210227071802 69 147 0.0 0.0 0.00 0.00 0.00 93 1017.5
20210227071314 69 147 0.0 0.0 0.00 0.00 0.00 93 1017.5
20210227070806 69 147 0.0 0.0 0.00 0.00 0.00 93 1017.4
20210227070258 69 147 0.0 0.0 0.00 0.00 0.00 93 1017.3
20210227065811 69 147 0.0 0.0 0.00 0.00 0.00 93 1017.2
20210227065322 69 147 0.0 0.0 0.00 0.00 0.00 93 1017.2
20210227064848 69 147 0.0 0.0 0.00 0.00 0.00 93 1017.2
20210227064306 69 147 0.0 0.0 0.00 0.00 0.00 93 1017.2
20210227063800 69 147 0.0 0.0 0.00 0.00 0.00 93 1017.1
20210227063313 70 147 0.0 0.0 0.00 0.00 0.00 93 1017.0
20210227062825 70 147 0.0 0.0 0.00 0.00 0.00 93 1017.0
20210227062335 70 147 0.0 0.0 0.00 0.00 0.00 93 1017.0
20210227061808 70 147 0.0 2.0 0.00 0.00 0.00 93 1016.9
20210227061300 70 147 0.0 2.0 0.00 0.00 0.00 93 1016.9
20210227060812 70 173 0.0 1.0 0.00 0.00 0.00 93 1016.9
20210227060307 70 146 0.0 2.0 0.00 0.00 0.00 93 1016.9
20210227055759 70 166 0.0 1.0 0.00 0.00 0.00 93 1017.0
20210227055310 70 44 0.0 1.0 0.00 0.00 0.00 93 1017.0
20210227054813 70 151 0.0 1.0 0.00 0.00 0.00 92 1017.0
20210227054317 70 151 0.0 2.0 0.00 0.00 0.00 92 1017.1
20210227053804 71 151 0.0 2.0 0.00 0.00 0.00 92 1017.1
20210227053257 71 157 0.0 1.0 0.00 0.00 0.00 92 1017.0
20210227052931 71 169 0.0 1.0 0.00 0.00 0.00 92 1017.0
20210227052300 71 156 0.0 2.0 0.00 0.00 0.00 92 1017.0
20210227051812 71 136 0.0 3.0 0.00 0.00 0.00 92 1016.9
20210227051306 71 150 0.0 3.0 0.00 0.00 0.00 92 1016.9
20210227050757 71 156 0.0 3.0 0.00 0.00 0.00 92 1017.0
20210227050311 71 158 1.0 3.0 0.00 0.00 0.00 92 1017.1
20210227045802 71 172 1.0 3.0 0.00 0.00 0.00 93 1017.1
20210227045352 71 151 0.0 2.0 0.00 0.00 0.00 93 1017.1
20210227044818 71 168 0.0 4.0 0.00 0.00 0.00 93 1017.1
20210227044315 71 169 1.0 4.0 0.00 0.00 0.00 92 1017.1
20210227043808 71 136 0.0 2.0 0.00 0.00 0.00 92 1017.0
20210227043305 71 136 0.0 3.0 0.00 0.00 0.00 92 1017.0
20210227042855 72 95 1.0 3.0 0.00 0.00 0.00 92 1017.1
20210227042307 72 159 1.0 3.0 0.00 0.00 0.00 92 1017.1
20210227041757 71 192 0.0 3.0 0.00 0.00 0.00 92 1017.1
20210227041311 71 193 0.0 4.0 0.00 0.00 0.00 92 1017.1
20210227040800 71 138 0.0 3.0 0.00 0.00 0.00 92 1017.1
20210227040316 71 166 0.0 4.0 0.00 0.00 0.00 92 1017.1
20210227035804 71 167 0.0 4.0 0.00 0.00 0.00 92 1017.1
20210227035312 71 190 0.0 3.0 0.00 0.00 0.00 92 1017.1
20210227034837 71 154 0.0 4.0 0.00 0.00 0.00 92 1017.1
20210227034305 71 139 1.0 4.0 0.00 0.00 0.00 91 1017.0
20210227033816 71 150 1.0 4.0 0.00 0.00 0.00 91 1016.9
20210227033308 71 138 0.0 2.0 0.00 0.00 0.00 91 1016.9
20210227032806 71 143 0.0 2.0 0.00 0.00 0.00 91 1016.8
20210227032309 71 136 0.0 1.0 0.00 0.00 0.00 91 1016.8
20210227031801 72 136 0.0 3.0 0.00 0.00 0.00 91 1016.8
20210227031307 72 109 1.0 3.0 0.00 0.00 0.00 90 1016.8
20210227030808 72 118 0.0 3.0 0.00 0.00 0.00 90 1016.8
20210227030301 72 127 0.0 3.0 0.00 0.00 0.00 90 1016.8
20210227025813 72 150 0.0 3.0 0.00 0.00 0.00 90 1016.7
20210227025327 72 144 0.0 2.0 0.00 0.00 0.00 90 1016.7
20210227024822 72 204 0.0 3.0 0.00 0.00 0.00 90 1016.7
20210227024306 72 146 0.0 3.0 0.00 0.00 0.00 89 1016.8
20210227023756 72 190 0.0 2.0 0.00 0.00 0.00 89 1016.7
20210227023313 72 163 0.0 5.0 0.00 0.00 0.00 89 1016.7
20210227022823 72 146 0.0 5.0 0.00 0.00 0.00 89 1016.8
20210227022318 72 142 0.0 3.0 0.00 0.00 0.00 88 1016.8
20210227021809 72 198 0.0 3.0 0.00 0.00 0.00 88 1016.8
20210227021301 72 190 0.0 5.0 0.00 0.00 0.00 88 1016.6
20210227020812 73 146 1.0 5.0 0.00 0.00 0.00 88 1016.7
20210227020308 73 144 0.0 3.0 0.00 0.00 0.00 88 1016.6
20210227015800 73 165 0.0 3.0 0.00 0.00 0.00 88 1016.6
20210227015332 73 135 0.0 5.0 0.00 0.00 0.00 87 1016.4
20210227014830 73 220 1.0 6.0 0.00 0.00 0.00 87 1016.4
20210227014318 73 188 1.0 6.0 0.00 0.00 0.00 87 1016.4
20210227013809 73 155 1.0 4.0 0.00 0.00 0.00 87 1016.4
20210227013301 73 148 0.0 2.0 0.00 0.00 0.00 87 1016.3
20210227012913 73 169 0.0 3.0 0.00 0.00 0.00 86 1016.4
20210227012306 73 173 1.0 3.0 0.00 0.00 0.00 86 1016.3
20210227011817 73 148 0.0 2.0 0.00 0.00 0.00 86 1016.2
20210227011310 73 138 0.0 3.0 0.00 0.00 0.00 85 1016.2
20210227010810 73 165 0.0 5.0 0.00 0.00 0.00 85 1016.1
20210227010329 73 192 1.0 5.0 0.00 0.00 0.00 85 1016.2
20210227005809 73 222 1.0 5.0 0.00 0.00 0.00 85 1016.0
20210227005359 74 147 0.0 5.0 0.00 0.00 0.00 84 1016.1
20210227004833 74 162 0.0 4.0 0.00 0.00 0.00 83 1016.1
20210227004302 74 142 1.0 4.0 0.00 0.00 0.00 83 1016.1
20210227003813 74 200 0.0 3.0 0.00 0.00 0.00 82 1016.0